TimeCDT,TemperatureF,Dew PointF,Humidity,Sea Level PressureIn,VisibilityMPH,Wind Direction,Wind SpeedMPH,Gust SpeedMPH,PrecipitationIn,Events,Conditions,WindDirDegrees,DateUTC
12:51 AM,84.0,73.0,69,29.88,10.0,SSE,10.4,-,N/A,,Partly Cloudy,150,2013-07-15 05:51:00
1:51 AM,82.9,73.0,72,29.87,10.0,SSE,10.4,-,N/A,,Partly Cloudy,160,2013-07-15 06:51:00
2:51 AM,82.9,73.0,72,29.86,10.0,SSE,9.2,-,N/A,,Scattered Clouds,150,2013-07-15 07:51:00
3:51 AM,82.0,73.9,76,29.86,10.0,SSE,9.2,-,N/A,,Partly Cloudy,160,2013-07-15 08:51:00
4:51 AM,82.0,73.9,76,29.86,10.0,South,9.2,-,N/A,,Partly Cloudy,170,2013-07-15 09:51:00
5:51 AM,82.0,73.9,76,29.87,10.0,South,6.9,-,N/A,,Partly Cloudy,170,2013-07-15 10:51:00
6:51 AM,81.0,73.9,79,29.88,10.0,SSE,5.8,-,N/A,,Partly Cloudy,150,2013-07-15 11:51:00
7:51 AM,82.0,75.0,79,29.88,10.0,SSE,6.9,-,N/A,,Partly Cloudy,150,2013-07-15 12:51:00
8:51 AM,84.9,75.0,72,29.90,10.0,SSE,13.8,-,N/A,,Partly Cloudy,150,2013-07-15 13:51:00
9:51 AM,88.0,72.0,59,29.91,10.0,South,18.4,25.3,N/A,,Scattered Clouds,170,2013-07-15 14:51:00
10:51 AM,91.0,72.0,53,29.91,10.0,SE,19.6,25.3,N/A,,Scattered Clouds,140,2013-07-15 15:51:00
11:51 AM,91.9,71.1,50,29.92,10.0,SSE,17.3,27.6,N/A,,Scattered Clouds,150,2013-07-15 16:51:00
12:51 PM,93.9,71.1,47,29.91,10.0,SE,21.9,28.8,N/A,,Scattered Clouds,130,2013-07-15 17:51:00
1:51 PM,93.9,71.1,47,29.91,10.0,SE,20.7,28.8,N/A,,Scattered Clouds,140,2013-07-15 18:51:00
2:51 PM,93.9,72.0,49,29.90,10.0,ESE,19.6,26.5,N/A,,Scattered Clouds,120,2013-07-15 19:51:00
3:51 PM,93.9,71.1,47,29.88,10.0,ESE,18.4,28.8,N/A,,Scattered Clouds,110,2013-07-15 20:51:00
4:51 PM,91.0,72.0,53,29.88,10.0,ESE,20.7,27.6,N/A,,Scattered Clouds,120,2013-07-15 21:51:00
5:51 PM,90.0,72.0,55,29.88,10.0,SE,21.9,26.5,N/A,,Mostly Cloudy,130,2013-07-15 22:51:00
6:51 PM,89.1,73.0,59,29.89,10.0,SE,18.4,24.2,N/A,,Scattered Clouds,130,2013-07-15 23:51:00
7:51 PM,87.1,72.0,61,29.92,10.0,ESE,17.3,-,N/A,,Scattered Clouds,120,2013-07-16 00:51:00
8:51 PM,86.0,73.9,67,29.93,10.0,ESE,16.1,-,N/A,,Partly Cloudy,110,2013-07-16 01:51:00
9:51 PM,84.9,73.0,67,29.94,10.0,ESE,15.0,-,N/A,,Partly Cloudy,120,2013-07-16 02:51:00
10:51 PM,84.9,73.9,69,29.95,10.0,ESE,12.7,21.9,N/A,,Partly Cloudy,120,2013-07-16 03:51:00
11:51 PM,84.0,75.0,74,29.96,10.0,ESE,13.8,19.6,N/A,,Scattered Clouds,120,2013-07-16 04:51:00